Location: Nora Junction
(43.1400°N, 93.0163°W)
Time: 02:36:50
(UTC+00:00)

Timation 1 Rocket - Pass Details

Date: 18 November 2025
Orbit: 898 x 905 km, 70.0° (Epoch: 08 December)

Event Time Altitude Azimuth Distance (km) Brightness Sun altitude
Rises 23:44:22 0° 334° (NNW) 3,526 7.6 -10.9°
Reaches altitude 10° 23:46:52 10° 335° (NNW) 2,583 6.8 -11.3°
Maximum altitude 23:52:51 83° 63° (ENE) 913 4.3 -12.4°
Drops below altitude 10° 23:58:49 10° 152° (SSE) 2,571 6.6 -13.4°
Sets 00:01:18 0° 153° (SSE) 3,509 7.3 -13.9°
